星链-34630 (STARLINK-34630)

导读 | 豆包AI

STARLINK-34630是美国SpaceX星链星座的卫星,星链旨在构建全球卫星互联网星座,提供低延迟高速网络覆盖。该卫星于2025年7月26日发射升空,属于星链大规模组网进程中的一颗卫星,依托近地轨道部署,将为全球偏远地区、移动场景等提供网络接入服务,延续星链星座的组网扩张节奏。

Basic Information
目录编号:
64948
目录名称:
STARLINK-34630
国际标识:
2025-158S
轨道中心:
EARTH
卫星名称:
星链-34630
卫星全名:
星链-34630 (STARLINK-34630)
卫星状态:
在轨 (已飞行277 天)
发射日期:
2025-07-26 UTC
国别 :
美国 (US)
星等 :
--
Orbit Information
数据来源 国际轨道数据 AOE轨道数据
星历时间 2026-04-29T14:53:52+0800
5小时前
查看轨道信息
2026-04-23T00:00:00+0800
6天前
查看轨道信息
半长轴 6928.018km 6927.608km
偏心率 0.0002676 0.000204
轨道倾角 97.564° 97.592°
近地点辐角 47.421° 85.584°
升交点赤经 343.993° 337.488°
平近点角 312.724° 50.565°
近地点 548.027km 548.057km
远地点 551.735km 550.885km
周期 95.647分钟 95.639分钟
每日圈数 15.055296 15.056631
Detailed Information
固有亮度:
5
最大亮度:
2.5
卫星平台:
Starlink V1.0
覆盖范围:
全球
运营商:
太空探索技术公司
运营商所在国:
美国
制造商(研发单位):
太空探索技术公司
制造商所在国:
美国
使用方式:
暂无
Satellite Introduction
Starlink 计划是 SpaceX 推出的全球卫星互联网项目,通过发射低轨道卫星,为全球尤其是偏远地区提供高速、低延迟的互联网服务。自 2019 年起,Starlink 已部署数千颗卫星,旨在缩小全球数字鸿沟,推动互联网普及。该项目还为军事、航空等行业提供通信支持,带来广泛经济效益。
2D Orbit Map
3D Orbit Map
Orbit Altitude Analysis Chart
Orbit Inclination Analysis Chart
Orbit Comprehensive Analysis Chart
View Comprehensive Chart